Camp Point, IL

9:56 PM CST on February 19, 2017 (GMT -0600)
Quincy Regional-Baldwin

Weather History for KUIN - April, 2012

Change the Weather History Date:

Friday, April 6, 2012

  Actual Average Record
Temperature  
Mean Temperature 46 °F 50 °F  
Max Temperature 60 °F 60 °F 82 °F (1972)
Min Temperature 33 °F 40 °F 17 °F (1982)
Degree Days  
Heating Degree Days 18 15  
Month to date heating degree days 97  
Since 1 July heating degree days 5157  
Cooling Degree Days 0 0  
Month to date cooling degree days 0  
Year to date cooling degree days 2  
Moisture  
Dew Point 32 °F    
Average Humidity 58    
Maximum Humidity 82    
Minimum Humidity 35    
Precipitation  
Precipitation 0.00 in 0.11 in 2.86 in (1909)
Month to date precipitation 0.65  
Year to date precipitation 6.51  
Sea Level Pressure  
Sea Level Pressure 30.19 in    
Wind  
Wind Speed 7 mph (East)    
Max Wind Speed 13 mph    
Max Gust Speed -    
Visibility 10 miles    
Events      
T = Trace of Precipitation, MM = Missing Value Source: NWS Daily Summary

Daily Weather History Graph

Daily Weather History Graph

Search for Another Location

Airport or City:

Trip Planner

Search our weather history database for the weather conditions in past years. The results will help you decide how hot, cold, wet, or windy it might be!

Date:

Astronomy

Apr. 06, 2012 Rise Set
Actual Time 6:40 AM CDT 7:34 PM CDT
Civil Twilight 6:12 AM CDT 8:02 PM CDT
Nautical Twilight 5:39 AM CDT 8:34 PM CDT
Astronomical Twilight 5:06 AM CDT 9:08 PM CDT
Moon 7:54 PM CDT (4/6) 6:12 AM CDT (4/6)
Length of Visible Light 13h 49m
Length of Day
12h 54m
Full, 100% of the Moon is Illuminated
Apr 6
Full
Apr 6
Full
Apr 13
Last Quarter
Apr 21
New
Apr 29
First Quarter

Hourly Weather History & Observations

Time (CDT) Temp. Windchill Dew Point Humidity Pressure Visibility Wind Dir Wind Speed Gust Speed Precip Events Conditions
12:54 AM 41.0 °F 35.8 °F 30.9 °F 67% 30.13 in 10.0 mi NE 8.1 mph - N/A   Clear
1:54 AM 37.9 °F 32.1 °F 28.9 °F 70% 30.14 in 10.0 mi NE 8.1 mph - N/A   Clear
2:54 AM 36.0 °F 30.3 °F 28.0 °F 73% 30.15 in 10.0 mi NE 6.9 mph - N/A   Clear
3:54 AM 34.0 °F 31.0 °F 27.0 °F 75% 30.16 in 10.0 mi North 3.5 mph - N/A   Clear
4:54 AM 33.1 °F 26.1 °F 27.0 °F 78% 30.17 in 10.0 mi NE 8.1 mph - N/A   Clear
5:54 AM 33.1 °F 26.1 °F 27.0 °F 78% 30.18 in 10.0 mi NE 8.1 mph - N/A   Clear
6:54 AM 33.1 °F 26.1 °F 28.0 °F 82% 30.21 in 10.0 mi NE 8.1 mph - N/A   Clear
7:54 AM 37.0 °F 28.9 °F 28.9 °F 73% 30.22 in 10.0 mi ENE 12.7 mph - N/A   Clear
8:54 AM 42.1 °F 36.6 °F 32.0 °F 67% 30.24 in 10.0 mi East 9.2 mph - N/A   Clear
9:54 AM 45.0 °F 40.6 °F 33.1 °F 63% 30.26 in 10.0 mi East 8.1 mph - N/A   Clear
10:54 AM 48.9 °F - 33.1 °F 54% 30.26 in 10.0 mi East 6.9 mph - N/A   Clear
11:54 AM 53.1 °F - 33.1 °F 47% 30.26 in 10.0 mi Calm Calm - N/A   Clear
12:54 PM 55.0 °F - 30.9 °F 40% 30.24 in 10.0 mi East 5.8 mph - N/A   Clear
1:54 PM 57.0 °F - 32.0 °F 39% 30.22 in 10.0 mi East 9.2 mph - N/A   Clear
2:54 PM 57.9 °F - 34.0 °F 41% 30.21 in 10.0 mi Variable 5.8 mph - N/A   Clear
3:54 PM 57.9 °F - 32.0 °F 37% 30.19 in 10.0 mi Variable 3.5 mph - N/A   Clear
4:54 PM 60.1 °F - 32.0 °F 35% 30.17 in 10.0 mi ESE 10.4 mph - N/A   Clear
5:54 PM 60.1 °F - 32.0 °F 35% 30.16 in 10.0 mi SE 9.2 mph - N/A   Clear
6:54 PM 55.9 °F - 33.1 °F 42% 30.15 in 10.0 mi SSE 6.9 mph - N/A   Clear
7:54 PM 53.1 °F - 35.1 °F 50% 30.15 in 10.0 mi SSE 3.5 mph - N/A   Clear
8:54 PM 52.0 °F - 35.1 °F 53% 30.16 in 10.0 mi SSE 5.8 mph - N/A   Clear
9:54 PM 48.9 °F - 36.0 °F 61% 30.16 in 10.0 mi SSE 4.6 mph - N/A   Clear
10:54 PM 48.0 °F - 36.0 °F 63% 30.17 in 10.0 mi SSE 4.6 mph - N/A   Clear
11:54 PM 43.0 °F 39.5 °F 36.0 °F 76% 30.16 in 10.0 mi SE 5.8 mph - N/A   Clear